| time (UTC) | temp F | wind direction | speed MPH | gust MPH | rain 1hr in | rain 24hr in | rain mn in | humidity % | barometer mb |
| 20260509014708 | 57 | 218 | 0.0 | 0.0 | 0.00 | 0.00 | 0.00 | 38 | 1000.6 |
| 20260509014003 | 58 | 218 | 0.0 | 0.0 | 0.00 | 0.00 | 0.00 | 37 | 1000.6 |
| 20260509013209 | 58 | 218 | 0.0 | 0.0 | 0.00 | 0.00 | 0.00 | 38 | 1000.6 |
| 20260509013004 | 58 | 218 | 0.0 | 1.0 | 0.00 | 0.00 | 0.00 | 38 | 1000.6 |
| 20260509012004 | 59 | 218 | 1.0 | 3.0 | 0.00 | 0.00 | 0.00 | 38 | 1000.7 |
| 20260509011708 | 59 | 218 | 1.0 | 2.0 | 0.00 | 0.00 | 0.00 | 37 | 1000.7 |
| 20260509011004 | 59 | 217 | 2.0 | 5.0 | 0.00 | 0.00 | 0.00 | 36 | 1000.7 |
| 20260509010210 | 59 | 224 | 3.0 | 3.0 | 0.00 | 0.00 | 0.00 | 37 | 1000.8 |
| 20260509010005 | 59 | 235 | 3.0 | 7.0 | 0.00 | 0.00 | 0.00 | 37 | 1000.8 |
| 20260509005006 | 59 | 233 | 5.0 | 6.0 | 0.00 | 0.00 | 0.00 | 37 | 1000.7 |
| 20260509004710 | 59 | 246 | 5.0 | 5.0 | 0.00 | 0.00 | 0.00 | 43 | 1000.8 |
| 20260509004006 | 59 | 242 | 3.0 | 8.0 | 0.00 | 0.00 | 0.00 | 39 | 1000.9 |
| 20260509003210 | 60 | 252 | 3.0 | 7.0 | 0.00 | 0.00 | 0.00 | 38 | 1000.8 |
| 20260509003005 | 60 | 250 | 5.0 | 10.0 | 0.00 | 0.00 | 0.00 | 34 | 1000.9 |
| 20260509002006 | 60 | 247 | 6.0 | 13.0 | 0.00 | 0.00 | 0.00 | 33 | 1000.9 |
| 20260509001711 | 60 | 253 | 7.0 | 13.0 | 0.00 | 0.00 | 0.00 | 34 | 1000.9 |
| 20260509001005 | 60 | 254 | 6.0 | 17.0 | 0.00 | 0.00 | 0.00 | 35 | 1001.1 |
| 20260509000211 | 60 | 261 | 12.0 | 14.0 | 0.00 | 0.00 | 0.00 | 32 | 1001.1 |
| 20260508234711 | 60 | 268 | 9.0 | 14.0 | 0.00 | 0.00 | 0.00 | 30 | 1001.1 |
| 20260508234005 | 60 | 262 | 10.0 | 15.0 | 0.00 | 0.00 | 0.00 | 36 | 1001.2 |
| 20260508233211 | 60 | 255 | 7.0 | 10.0 | 0.00 | 0.00 | 0.00 | 33 | 1001.3 |
| 20260508233005 | 60 | 245 | 11.0 | 17.0 | 0.00 | 0.00 | 0.00 | 32 | 1001.2 |
| 20260508232006 | 60 | 236 | 8.0 | 14.0 | 0.00 | 0.00 | 0.00 | 33 | 1001.4 |
| 20260508231710 | 60 | 238 | 7.0 | 8.0 | 0.00 | 0.00 | 0.00 | 33 | 1001.4 |
| 20260508231005 | 60 | 251 | 7.0 | 15.0 | 0.00 | 0.00 | 0.00 | 33 | 1001.5 |
| 20260508230210 | 61 | 233 | 12.0 | 15.0 | 0.00 | 0.00 | 0.00 | 35 | 1001.5 |
| 20260508230005 | 61 | 228 | 12.0 | 17.0 | 0.00 | 0.00 | 0.00 | 31 | 1001.5 |
| 20260508225005 | 61 | 269 | 7.0 | 18.0 | 0.00 | 0.00 | 0.00 | 29 | 1001.5 |
| 20260508224710 | 61 | 259 | 10.0 | 10.0 | 0.00 | 0.00 | 0.00 | 38 | 1001.6 |
| 20260508224005 | 60 | 227 | 7.0 | 16.0 | 0.00 | 0.00 | 0.00 | 34 | 1001.5 |
| 20260508223211 | 60 | 230 | 14.0 | 16.0 | 0.00 | 0.00 | 0.00 | 35 | 1001.9 |
| 20260508223005 | 60 | 230 | 10.0 | 20.0 | 0.00 | 0.00 | 0.00 | 33 | 1001.9 |
| 20260508222005 | 61 | 231 | 13.0 | 20.0 | 0.00 | 0.00 | 0.00 | 32 | 1001.9 |
| 20260508221710 | 60 | 250 | 9.0 | 12.0 | 0.00 | 0.00 | 0.00 | 34 | 1001.9 |
| 20260508221005 | 60 | 241 | 9.0 | 16.0 | 0.00 | 0.00 | 0.00 | 31 | 1001.9 |
| 20260508220210 | 61 | 235 | 14.0 | 16.0 | 0.00 | 0.00 | 0.00 | 34 | 1002.2 |
| 20260508215005 | 60 | 236 | 12.0 | 17.0 | 0.00 | 0.00 | 0.00 | 33 | 1002.3 |
| 20260508214711 | 60 | 236 | 14.0 | 15.0 | 0.00 | 0.00 | 0.00 | 33 | 1002.4 |
| 20260508214005 | 61 | 282 | 6.0 | 17.0 | 0.00 | 0.00 | 0.00 | 29 | 1002.3 |
| 20260508213210 | 60 | 283 | 5.0 | 7.0 | 0.00 | 0.00 | 0.00 | 31 | 1002.4 |
| 20260508213005 | 60 | 282 | 5.0 | 14.0 | 0.00 | 0.00 | 0.00 | 31 | 1002.4 |
| 20260508212005 | 59 | 251 | 7.0 | 12.0 | 0.00 | 0.00 | 0.00 | 35 | 1002.5 |
| 20260508211710 | 59 | 251 | 7.0 | 8.0 | 0.00 | 0.00 | 0.00 | 33 | 1002.5 |
| 20260508211005 | 59 | 238 | 9.0 | 17.0 | 0.00 | 0.00 | 0.00 | 34 | 1002.6 |
| 20260508210210 | 60 | 243 | 8.0 | 10.0 | 0.00 | 0.00 | 0.00 | 33 | 1002.7 |
| 20260508210005 | 60 | 270 | 8.0 | 13.0 | 0.00 | 0.00 | 0.00 | 33 | 1002.7 |
| 20260508204711 | 59 | 237 | 6.0 | 9.0 | 0.00 | 0.00 | 0.00 | 31 | 1002.7 |
| 20260508204005 | 59 | 231 | 6.0 | 13.0 | 0.00 | 0.00 | 0.00 | 34 | 1002.8 |
| 20260508203211 | 59 | 243 | 10.0 | 12.0 | 0.00 | 0.00 | 0.00 | 35 | 1002.9 |
| 20260508203005 | 59 | 231 | 9.0 | 12.0 | 0.00 | 0.00 | 0.00 | 36 | 1002.9 |
| 20260508202005 | 59 | 267 | 3.0 | 10.0 | 0.00 | 0.00 | 0.00 | 31 | 1003.1 |
| 20260508201710 | 59 | 279 | 7.0 | 8.0 | 0.00 | 0.00 | 0.00 | 30 | 1003.2 |
| 20260508200211 | 59 | 265 | 10.0 | 14.0 | 0.00 | 0.00 | 0.00 | 31 | 1003.2 |
| 20260508200005 | 59 | 254 | 10.0 | 20.0 | 0.00 | 0.00 | 0.00 | 32 | 1003.2 |
| 20260508195005 | 59 | 226 | 2.0 | 14.0 | 0.00 | 0.00 | 0.00 | 31 | 1003.4 |
| 20260508194709 | 58 | 230 | 3.0 | 5.0 | 0.00 | 0.00 | 0.00 | 29 | 1003.6 |
| 20260508194005 | 58 | 251 | 9.0 | 14.0 | 0.00 | 0.00 | 0.00 | 31 | 1003.7 |
| 20260508193211 | 58 | 242 | 10.0 | 13.0 | 0.00 | 0.00 | 0.00 | 34 | 1003.9 |
| 20260508193005 | 58 | 254 | 5.0 | 15.0 | 0.00 | 0.00 | 0.00 | 30 | 1003.9 |
| 20260508192005 | 59 | 257 | 10.0 | 16.0 | 0.00 | 0.00 | 0.00 | 32 | 1004.0 |
| 20260508191710 | 60 | 227 | 8.0 | 13.0 | 0.00 | 0.00 | 0.00 | 30 | 1004.0 |
| 20260508191005 | 60 | 354 | 5.0 | 15.0 | 0.00 | 0.00 | 0.00 | 32 | 1004.0 |
| 20260508190211 | 59 | 260 | 12.0 | 14.0 | 0.00 | 0.00 | 0.00 | 31 | 1004.4 |
| 20260508190005 | 59 | 265 | 10.0 | 12.0 | 0.00 | 0.00 | 0.00 | 31 | 1004.4 |
| 20260508185005 | 57 | 266 | 11.0 | 14.0 | 0.00 | 0.00 | 0.00 | 31 | 1004.4 |
| 20260508184711 | 57 | 256 | 3.0 | 7.0 | 0.00 | 0.00 | 0.00 | 30 | 1004.5 |
| 20260508184005 | 58 | 244 | 10.0 | 20.0 | 0.00 | 0.00 | 0.00 | 34 | 1004.6 |
| 20260508183210 | 57 | 242 | 14.0 | 16.0 | 0.00 | 0.00 | 0.00 | 32 | 1004.6 |
| 20260508183005 | 57 | 233 | 15.0 | 22.0 | 0.00 | 0.00 | 0.00 | 34 | 1004.6 |
| 20260508182005 | 59 | 248 | 7.0 | 14.0 | 0.00 | 0.00 | 0.00 | 31 | 1005.0 |
| 20260508181710 | 58 | 278 | 5.0 | 8.0 | 0.00 | 0.00 | 0.00 | 31 | 1005.0 |
| 20260508181005 | 58 | 267 | 4.0 | 15.0 | 0.00 | 0.00 | 0.00 | 31 | 1005.0 |
| 20260508180211 | 57 | 236 | 6.0 | 7.0 | 0.00 | 0.00 | 0.00 | 32 | 1005.1 |
| 20260508175005 | 57 | 253 | 8.0 | 16.0 | 0.00 | 0.00 | 0.00 | 32 | 1005.2 |
| 20260508174709 | 57 | 249 | 8.0 | 15.0 | 0.00 | 0.00 | 0.00 | 32 | 1005.1 |
| 20260508173211 | 57 | 280 | 12.0 | 18.0 | 0.00 | 0.00 | 0.00 | 32 | 1005.4 |
| 20260508173005 | 57 | 305 | 9.0 | 21.0 | 0.00 | 0.00 | 0.00 | 31 | 1005.5 |
| 20260508171709 | 56 | 257 | 7.0 | 12.0 | 0.00 | 0.00 | 0.00 | 36 | 1005.7 |
| 20260508171005 | 57 | 255 | 10.0 | 18.0 | 0.00 | 0.00 | 0.00 | 33 | 1005.8 |
| 20260508170210 | 56 | 265 | 1.0 | 3.0 | 0.00 | 0.00 | 0.00 | 33 | 1005.8 |
| 20260508170005 | 56 | 276 | 3.0 | 15.0 | 0.00 | 0.00 | 0.00 | 32 | 1006.0 |
| 20260508164710 | 56 | 240 | 8.0 | 9.0 | 0.00 | 0.00 | 0.00 | 34 | 1006.2 |
| 20260508164004 | 56 | 265 | 2.0 | 10.0 | 0.00 | 0.00 | 0.00 | 35 | 1006.2 |
| 20260508163211 | 55 | 256 | 3.0 | 7.0 | 0.00 | 0.00 | 0.00 | 34 | 1006.3 |
| 20260508163005 | 55 | 235 | 12.0 | 16.0 | 0.00 | 0.00 | 0.00 | 35 | 1006.4 |
| 20260508162005 | 54 | 224 | 7.0 | 20.0 | 0.00 | 0.00 | 0.00 | 38 | 1006.6 |
| 20260508161710 | 54 | 245 | 10.0 | 13.0 | 0.00 | 0.00 | 0.00 | 41 | 1006.7 |
| 20260508161005 | 55 | 250 | 13.0 | 18.0 | 0.00 | 0.00 | 0.00 | 34 | 1006.8 |
| 20260508160211 | 54 | 244 | 12.0 | 13.0 | 0.00 | 0.00 | 0.00 | 38 | 1006.9 |
| 20260508160004 | 54 | 243 | 12.0 | 17.0 | 0.00 | 0.00 | 0.00 | 36 | 1006.9 |
| 20260508155005 | 54 | 257 | 12.0 | 16.0 | 0.00 | 0.00 | 0.00 | 34 | 1007.0 |
| 20260508154711 | 55 | 255 | 8.0 | 14.0 | 0.00 | 0.00 | 0.00 | 36 | 1006.9 |
| 20260508154004 | 54 | 303 | 6.0 | 14.0 | 0.00 | 0.00 | 0.00 | 36 | 1007.1 |
| 20260508153211 | 53 | 241 | 2.0 | 3.0 | 0.00 | 0.00 | 0.00 | 41 | 1007.3 |
| 20260508153005 | 53 | 226 | 8.0 | 14.0 | 0.00 | 0.00 | 0.00 | 43 | 1007.2 |
| 20260508151711 | 52 | 256 | 6.0 | 8.0 | 0.00 | 0.00 | 0.00 | 44 | 1007.4 |
| 20260508151005 | 52 | 312 | 1.0 | 16.0 | 0.00 | 0.00 | 0.00 | 41 | 1007.4 |
| 20260508150210 | 52 | 245 | 12.0 | 16.0 | 0.00 | 0.00 | 0.00 | 42 | 1007.6 |
| 20260508150006 | 52 | 259 | 9.0 | 12.0 | 0.00 | 0.00 | 0.00 | 40 | 1007.6 |
| 20260508144711 | 51 | 266 | 5.0 | 8.0 | 0.00 | 0.00 | 0.00 | 45 | 1007.8 |
| 20260508144005 | 50 | 242 | 6.0 | 8.0 | 0.00 | 0.00 | 0.00 | 45 | 1007.8 |
| 20260508143211 | 49 | 227 | 6.0 | 7.0 | 0.00 | 0.00 | 0.00 | 50 | 1007.9 |
| 20260508143005 | 49 | 222 | 6.0 | 8.0 | 0.00 | 0.00 | 0.00 | 49 | 1007.7 |
| 20260508141710 | 48 | 200 | 3.0 | 3.0 | 0.00 | 0.00 | 0.00 | 50 | 1008.0 |
| 20260508141005 | 48 | 234 | 6.0 | 10.0 | 0.00 | 0.00 | 0.00 | 53 | 1008.1 |
| 20260508140210 | 46 | 225 | 5.0 | 5.0 | 0.00 | 0.00 | 0.00 | 55 | 1008.1 |
| 20260508140005 | 46 | 243 | 5.0 | 10.0 | 0.00 | 0.00 | 0.00 | 59 | 1008.2 |
| 20260508135005 | 45 | 243 | 6.0 | 9.0 | 0.00 | 0.00 | 0.00 | 64 | 1008.2 |
| 20260508134710 | 44 | 231 | 7.0 | 9.0 | 0.00 | 0.00 | 0.00 | 66 | 1008.3 |
| 20260508134005 | 43 | 231 | 5.0 | 8.0 | 0.00 | 0.00 | 0.00 | 68 | 1008.3 |
| 20260508133210 | 42 | 230 | 5.0 | 6.0 | 0.00 | 0.00 | 0.00 | 71 | 1008.4 |
| 20260508132005 | 40 | 227 | 7.0 | 9.0 | 0.00 | 0.00 | 0.00 | 74 | 1008.4 |
| 20260508131710 | 40 | 232 | 7.0 | 7.0 | 0.00 | 0.00 | 0.00 | 74 | 1008.5 |
| 20260508131004 | 39 | 234 | 5.0 | 8.0 | 0.00 | 0.00 | 0.00 | 80 | 1008.4 |
| 20260508130210 | 38 | 232 | 3.0 | 5.0 | 0.00 | 0.00 | 0.00 | 82 | 1008.6 |
| 20260508130005 | 37 | 218 | 3.0 | 6.0 | 0.00 | 0.00 | 0.00 | 83 | 1008.6 |
| 20260508125005 | 36 | 233 | 5.0 | 6.0 | 0.00 | 0.00 | 0.00 | 87 | 1008.6 |
| 20260508124710 | 36 | 236 | 5.0 | 6.0 | 0.00 | 0.00 | 0.00 | 91 | 1008.6 |
| 20260508124005 | 34 | 253 | 4.0 | 5.0 | 0.00 | 0.00 | 0.00 | 96 | 1008.5 |
| 20260508123211 | 32 | 287 | 2.0 | 3.0 | 0.00 | 0.00 | 0.00 | 96 | 1008.6 |
| 20260508123005 | 32 | 287 | 2.0 | 3.0 | 0.00 | 0.00 | 0.00 | 96 | 1008.5 |
| 20260508122005 | 30 | 292 | 0.0 | 0.0 | 0.00 | 0.00 | 0.00 | 95 | 1008.4 |
| 20260508121709 | 30 | 292 | 0.0 | 0.0 | 0.00 | 0.00 | 0.00 | 95 | 1008.5 |
| 20260508120211 | 29 | 292 | 0.0 | 0.0 | 0.00 | 0.00 | 0.00 | 94 | 1008.2 |
| 20260508120005 | 29 | 292 | 0.0 | 0.0 | 0.00 | 0.00 | 0.00 | 94 | 1008.3 |
| 20260508115005 | 29 | 292 | 0.0 | 0.0 | 0.00 | 0.00 | 0.00 | 94 | 1008.3 |
| 20260508114711 | 29 | 292 | 0.0 | 0.0 | 0.00 | 0.00 | 0.00 | 94 | 1008.2 |
| 20260508114004 | 29 | 292 | 0.0 | 0.0 | 0.00 | 0.00 | 0.00 | 93 | 1008.2 |
| 20260508113209 | 28 | 292 | 0.0 | 0.0 | 0.00 | 0.00 | 0.00 | 93 | 1008.4 |
| 20260508113005 | 28 | 292 | 0.0 | 0.0 | 0.00 | 0.00 | 0.00 | 93 | 1008.3 |
| 20260508112005 | 28 | 292 | 0.0 | 0.0 | 0.00 | 0.00 | 0.00 | 93 | 1008.3 |
| 20260508111709 | 28 | 292 | 0.0 | 0.0 | 0.00 | 0.00 | 0.00 | 93 | 1008.3 |
| 20260508110211 | 28 | 292 | 0.0 | 0.0 | 0.00 | 0.00 | 0.00 | 92 | 1008.4 |
| 20260508110005 | 28 | 292 | 0.0 | 0.0 | 0.00 | 0.00 | 0.00 | 92 | 1008.4 |
| 20260508105005 | 28 | 292 | 0.0 | 1.0 | 0.00 | 0.00 | 0.00 | 92 | 1008.2 |
| 20260508104710 | 28 | 292 | 0.0 | 0.0 | 0.00 | 0.00 | 0.00 | 92 | 1008.2 |
| 20260508104004 | 28 | 292 | 0.0 | 0.0 | 0.00 | 0.00 | 0.00 | 92 | 1008.3 |
| 20260508103211 | 28 | 292 | 0.0 | 0.0 | 0.00 | 0.00 | 0.00 | 91 | 1008.2 |
| 20260508103004 | 28 | 292 | 0.0 | 0.0 | 0.00 | 0.00 | 0.00 | 91 | 1008.2 |
| 20260508102005 | 28 | 292 | 0.0 | 2.0 | 0.00 | 0.00 | 0.00 | 91 | 1008.2 |
| 20260508101711 | 28 | 292 | 0.0 | 0.0 | 0.00 | 0.00 | 0.00 | 91 | 1008.1 |
| 20260508101004 | 28 | 292 | 0.0 | 0.0 | 0.00 | 0.00 | 0.00 | 91 | 1008.2 |
| 20260508100211 | 28 | 292 | 0.0 | 0.0 | 0.00 | 0.00 | 0.00 | 91 | 1008.1 |
| 20260508100005 | 28 | 292 | 0.0 | 1.0 | 0.00 | 0.00 | 0.00 | 90 | 1008.2 |
| 20260508095004 | 28 | 292 | 0.0 | 0.0 | 0.00 | 0.00 | 0.00 | 90 | 1008.2 |
| 20260508094710 | 28 | 292 | 0.0 | 0.0 | 0.00 | 0.00 | 0.00 | 90 | 1008.2 |
| 20260508094005 | 28 | 292 | 0.0 | 0.0 | 0.00 | 0.00 | 0.00 | 90 | 1008.2 |
| 20260508093209 | 28 | 292 | 0.0 | 0.0 | 0.00 | 0.00 | 0.00 | 90 | 1008.3 |
| 20260508093004 | 28 | 292 | 0.0 | 0.0 | 0.00 | 0.00 | 0.00 | 90 | 1008.3 |
| 20260508092005 | 28 | 292 | 0.0 | 0.0 | 0.00 | 0.00 | 0.00 | 90 | 1008.3 |
| 20260508091710 | 28 | 292 | 0.0 | 0.0 | 0.00 | 0.00 | 0.00 | 90 | 1008.3 |
| 20260508091004 | 28 | 292 | 0.0 | 0.0 | 0.00 | 0.00 | 0.00 | 90 | 1008.3 |
| 20260508090210 | 28 | 292 | 0.0 | 0.0 | 0.00 | 0.00 | 0.00 | 90 | 1008.3 |
| 20260508090005 | 28 | 292 | 0.0 | 1.0 | 0.00 | 0.00 | 0.00 | 89 | 1008.4 |
| 20260508085004 | 28 | 292 | 0.0 | 1.0 | 0.00 | 0.00 | 0.00 | 88 | 1008.4 |
| 20260508084711 | 28 | 292 | 0.0 | 0.0 | 0.00 | 0.00 | 0.00 | 88 | 1008.4 |
| 20260508084005 | 28 | 292 | 0.0 | 0.0 | 0.00 | 0.00 | 0.00 | 88 | 1008.4 |
| 20260508083210 | 28 | 292 | 0.0 | 0.0 | 0.00 | 0.00 | 0.00 | 88 | 1008.5 |
| 20260508083005 | 28 | 292 | 0.0 | 0.0 | 0.00 | 0.00 | 0.00 | 88 | 1008.4 |
| 20260508082005 | 28 | 292 | 0.0 | 0.0 | 0.00 | 0.00 | 0.00 | 87 | 1008.5 |
| 20260508081710 | 29 | 292 | 0.0 | 0.0 | 0.00 | 0.00 | 0.00 | 87 | 1008.5 |
| 20260508081005 | 29 | 292 | 0.0 | 0.0 | 0.00 | 0.00 | 0.00 | 86 | 1008.5 |
| 20260508080211 | 29 | 292 | 0.0 | 0.0 | 0.00 | 0.00 | 0.00 | 86 | 1008.5 |
| 20260508080005 | 29 | 292 | 0.0 | 0.0 | 0.00 | 0.00 | 0.00 | 86 | 1008.5 |
| 20260508075004 | 29 | 292 | 0.0 | 0.0 | 0.00 | 0.00 | 0.00 | 85 | 1008.6 |
| 20260508074710 | 29 | 292 | 0.0 | 0.0 | 0.00 | 0.00 | 0.00 | 85 | 1008.6 |
| 20260508074005 | 29 | 292 | 0.0 | 0.0 | 0.00 | 0.00 | 0.00 | 84 | 1008.7 |
| 20260508073209 | 29 | 292 | 0.0 | 0.0 | 0.00 | 0.00 | 0.00 | 84 | 1008.7 |
| 20260508072005 | 29 | 292 | 0.0 | 0.0 | 0.00 | 0.00 | 0.00 | 84 | 1008.8 |
| 20260508071711 | 29 | 292 | 0.0 | 0.0 | 0.00 | 0.00 | 0.00 | 84 | 1008.8 |
| 20260508070211 | 30 | 292 | 0.0 | 0.0 | 0.00 | 0.00 | 0.00 | 84 | 1008.9 |
| 20260508070005 | 30 | 292 | 0.0 | 0.0 | 0.00 | 0.00 | 0.00 | 84 | 1008.9 |
| 20260508065004 | 30 | 292 | 0.0 | 0.0 | 0.00 | 0.00 | 0.00 | 84 | 1009.0 |
| 20260508064710 | 30 | 292 | 0.0 | 0.0 | 0.00 | 0.00 | 0.00 | 83 | 1009.0 |
| 20260508064005 | 30 | 292 | 0.0 | 0.0 | 0.00 | 0.00 | 0.00 | 84 | 1009.0 |
| 20260508063211 | 30 | 292 | 0.0 | 0.0 | 0.00 | 0.00 | 0.00 | 83 | 1009.1 |
| 20260508063004 | 30 | 292 | 0.0 | 0.0 | 0.00 | 0.00 | 0.00 | 83 | 1009.0 |
| 20260508062005 | 30 | 292 | 0.0 | 0.0 | 0.00 | 0.00 | 0.00 | 82 | 1009.1 |
| 20260508061710 | 30 | 292 | 0.0 | 0.0 | 0.00 | 0.00 | 0.00 | 82 | 1009.0 |
| 20260508061005 | 31 | 292 | 0.0 | 0.0 | 0.00 | 0.00 | 0.00 | 82 | 1009.1 |
| 20260508060210 | 31 | 292 | 0.0 | 0.0 | 0.00 | 0.00 | 0.00 | 82 | 1009.2 |
| 20260508060005 | 31 | 292 | 0.0 | 0.0 | 0.00 | 0.00 | 0.00 | 82 | 1009.2 |
| 20260508054711 | 31 | 292 | 0.0 | 0.0 | 0.00 | 0.00 | 0.00 | 81 | 1009.2 |
| 20260508054004 | 32 | 292 | 0.0 | 0.0 | 0.00 | 0.00 | 0.00 | 81 | 1009.3 |
| 20260508053210 | 32 | 292 | 0.0 | 0.0 | 0.00 | 0.00 | 0.00 | 80 | 1009.4 |
| 20260508053004 | 32 | 292 | 0.0 | 0.0 | 0.00 | 0.00 | 0.00 | 80 | 1009.4 |
| 20260508051710 | 32 | 292 | 0.0 | 0.0 | 0.00 | 0.00 | 0.00 | 79 | 1009.4 |
| 20260508051004 | 33 | 292 | 0.0 | 0.0 | 0.00 | 0.00 | 0.00 | 79 | 1009.4 |
| 20260508050211 | 33 | 292 | 0.0 | 0.0 | 0.00 | 0.00 | 0.00 | 78 | 1009.4 |
| 20260508050004 | 33 | 292 | 0.0 | 0.0 | 0.00 | 0.00 | 0.00 | 78 | 1009.3 |
| 20260508045005 | 34 | 292 | 0.0 | 0.0 | 0.00 | 0.00 | 0.00 | 76 | 1009.3 |
| 20260508044710 | 34 | 292 | 0.0 | 0.0 | 0.00 | 0.00 | 0.00 | 76 | 1009.4 |
| 20260508044004 | 34 | 292 | 0.0 | 0.0 | 0.00 | 0.00 | 0.00 | 76 | 1009.3 |
| 20260508043210 | 35 | 292 | 0.0 | 0.0 | 0.00 | 0.00 | 0.00 | 74 | 1009.3 |
| 20260508041709 | 35 | 292 | 0.0 | 0.0 | 0.00 | 0.00 | 0.00 | 74 | 1009.3 |
| 20260508041004 | 36 | 292 | 0.0 | 0.0 | 0.00 | 0.00 | 0.00 | 74 | 1009.4 |
| 20260508040210 | 36 | 292 | 0.0 | 0.0 | 0.00 | 0.00 | 0.00 | 73 | 1009.5 |
| 20260508035005 | 36 | 292 | 1.0 | 2.0 | 0.00 | 0.00 | 0.00 | 72 | 1009.4 |
| 20260508034710 | 36 | 293 | 0.0 | 0.0 | 0.00 | 0.00 | 0.00 | 72 | 1009.4 |
| 20260508034005 | 37 | 293 | 0.0 | 0.0 | 0.00 | 0.00 | 0.00 | 72 | 1009.5 |
| 20260508033209 | 37 | 293 | 0.0 | 0.0 | 0.00 | 0.00 | 0.00 | 71 | 1009.5 |
| 20260508032005 | 37 | 293 | 0.0 | 0.0 | 0.00 | 0.00 | 0.00 | 71 | 1009.5 |
| 20260508031709 | 37 | 293 | 0.0 | 0.0 | 0.00 | 0.00 | 0.00 | 70 | 1009.6 |
| 20260508031005 | 38 | 293 | 0.0 | 0.0 | 0.00 | 0.00 | 0.00 | 69 | 1009.6 |
| 20260508030209 | 38 | 293 | 0.0 | 0.0 | 0.00 | 0.00 | 0.00 | 67 | 1009.6 |
| 20260508030005 | 38 | 293 | 0.0 | 0.0 | 0.00 | 0.00 | 0.00 | 67 | 1009.7 |
| 20260508025005 | 39 | 293 | 0.0 | 0.0 | 0.00 | 0.00 | 0.00 | 65 | 1009.7 |
| 20260508024709 | 39 | 293 | 0.0 | 0.0 | 0.00 | 0.00 | 0.00 | 64 | 1009.7 |
| 20260508024004 | 40 | 293 | 0.0 | 0.0 | 0.00 | 0.00 | 0.00 | 62 | 1009.6 |
| 20260508023210 | 40 | 293 | 0.0 | 0.0 | 0.00 | 0.00 | 0.00 | 61 | 1009.6 |
| 20260508023005 | 40 | 293 | 0.0 | 0.0 | 0.00 | 0.00 | 0.00 | 61 | 1009.6 |
| 20260508022005 | 41 | 293 | 0.0 | 0.0 | 0.00 | 0.00 | 0.00 | 60 | 1009.6 |
| 20260508021710 | 41 | 293 | 0.0 | 0.0 | 0.00 | 0.00 | 0.00 | 60 | 1009.7 |
| 20260508021004 | 42 | 293 | 0.0 | 0.0 | 0.00 | 0.00 | 0.00 | 58 | 1009.6 |
| 20260508020210 | 43 | 293 | 0.0 | 0.0 | 0.00 | 0.00 | 0.00 | 58 | 1009.4 |
| 20260508020005 | 43 | 293 | 0.0 | 0.0 | 0.00 | 0.00 | 0.00 | 57 | 1009.4 |